• In Uzbekistan
  • List of Countries
  • For 7 days
  • Water Temperature
  • Satellite Maps
  • Weather Map
  • Weather Widgets
  • user-avatar
    Login

    Hourly Weather Neuquén

    Today, 27 March, Monday

    Time Temperature Precipitation Wind Pressure Humidity
    00:00 +21°C° 0 mm 4 mps 733 mmHg 43%
    01:00 +20°C° 0 mm 4 mps 734 mmHg 41%
    02:00 +20°C° 0 mm 4 mps 734 mmHg 42%
    03:00 +20°C° 0 mm 3 mps 734 mmHg 43%
    04:00 +20°C° 0 mm 3 mps 734 mmHg 45%
    05:00 +20°C° 0 mm 3 mps 734 mmHg 44%
    06:00 +20°C° 0 mm 4 mps 734 mmHg 43%
    07:00 +21°C° 0 mm 4 mps 734 mmHg 42%
    08:00 +22°C° 0.1 mm 4 mps 734 mmHg 43%
    09:00 +23°C° 0.1 mm 4 mps 734 mmHg 44%
    10:00 +26°C° 0.1 mm 4 mps 734 mmHg 45%
    11:00 +27°C° 0.3 mm 5 mps 734 mmHg 44%
    12:00 +28°C° 0.3 mm 6 mps 734 mmHg 43%
    13:00 +29°C° 0.3 mm 6 mps 734 mmHg 43%
    14:00 +29°C° 0.7 mm 6 mps 734 mmHg 43%
    15:00 +29°C° 0.7 mm 6 mps 733 mmHg 44%
    16:00 +29°C° 0.7 mm 5 mps 733 mmHg 45%
    17:00 +28°C° 0.4 mm 5 mps 733 mmHg 50%
    18:00 +27°C° 0.4 mm 4 mps 733 mmHg 55%
    19:00 +26°C° 0.4 mm 3 mps 734 mmHg 59%
    20:00 +25°C° 1.6 mm 3 mps 734 mmHg 63%
    21:00 +25°C° 1.6 mm 4 mps 734 mmHg 67%
    22:00 +23°C° 1.6 mm 4 mps 734 mmHg 71%
    23:00 +22°C° 2.4 mm 5 mps 734 mmHg 75%

    Tomorrow, 28 March, Tuesday

    Time Temperature Precipitation Wind Pressure Humidity
    00:00 +22°C° 2.4 mm 5 mps 734 mmHg 79%
    01:00 +21°C° 2.4 mm 6 mps 734 mmHg 83%
    02:00 +21°C° 0.8 mm 6 mps 734 mmHg 84%
    03:00 +21°C° 0.8 mm 6 mps 734 mmHg 86%
    04:00 +21°C° 0.8 mm 6 mps 734 mmHg 87%
    05:00 +21°C° 0.3 mm 7 mps 734 mmHg 86%
    06:00 +21°C° 0.3 mm 7 mps 734 mmHg 85%
    07:00 +22°C° 0.3 mm 7 mps 734 mmHg 84%
    08:00 +23°C° 0.6 mm 7 mps 734 mmHg 77%
    09:00 +26°C° 0.6 mm 8 mps 734 mmHg 71%
    10:00 +27°C° 0.6 mm 8 mps 734 mmHg 65%
    11:00 +28°C° 1.2 mm 8 mps 734 mmHg 62%
    12:00 +28°C° 1.2 mm 8 mps 733 mmHg 60%
    13:00 +29°C° 1.2 mm 8 mps 732 mmHg 57%
    14:00 +29°C° 1.5 mm 8 mps 732 mmHg 57%
    15:00 +29°C° 1.5 mm 8 mps 732 mmHg 57%
    16:00 +29°C° 1.5 mm 7 mps 731 mmHg 57%
    17:00 +28°C° 1.9 mm 7 mps 731 mmHg 63%
    18:00 +27°C° 1.9 mm 7 mps 731 mmHg 68%
    19:00 +24°C° 1.9 mm 6 mps 732 mmHg 74%
    20:00 +24°C° 3.6 mm 6 mps 732 mmHg 77%
    21:00 +23°C° 3.6 mm 6 mps 732 mmHg 80%
    22:00 +23°C° 3.6 mm 6 mps 732 mmHg 83%
    23:00 +23°C° 3.3 mm 5 mps 732 mmHg 84%

    Day after tomorrow, 29 March, Wednesday

    Time Temperature Precipitation Wind Pressure Humidity
    00:00 +22°C° 3.3 mm 5 mps 731 mmHg 85%
    01:00 +22°C° 3.3 mm 4 mps 731 mmHg 86%
    02:00 +22°C° 1.7 mm 4 mps 731 mmHg 88%
    03:00 +21°C° 1.7 mm 5 mps 731 mmHg 89%
    04:00 +21°C° 1.7 mm 5 mps 730 mmHg 90%
    05:00 +21°C° 1.5 mm 5 mps 731 mmHg 90%
    06:00 +21°C° 1.5 mm 5 mps 731 mmHg 90%
    07:00 +21°C° 1.5 mm 5 mps 731 mmHg 90%
    08:00 +22°C° 3.5 mm 5 mps 731 mmHg 84%
    09:00 +23°C° 3.5 mm 6 mps 731 mmHg 78%
    10:00 +24°C° 3.5 mm 6 mps 731 mmHg 72%
    11:00 +26°C° 0.9 mm 5 mps 730 mmHg 68%
    12:00 +26°C° 0.9 mm 5 mps 730 mmHg 64%
    13:00 +26°C° 0.9 mm 4 mps 730 mmHg 60%
    14:00 +26°C° 0.4 mm 4 mps 730 mmHg 59%
    15:00 +26°C° 0.4 mm 4 mps 730 mmHg 58%
    16:00 +25°C° 0.4 mm 4 mps 730 mmHg 56%
    17:00 +25°C° 0.1 mm 3 mps 730 mmHg 57%
    18:00 +24°C° 0.1 mm 3 mps 731 mmHg 58%
    19:00 +22°C° 0.1 mm 3 mps 732 mmHg 58%
    20:00 +21°C° 0 mm 5 mps 732 mmHg 56%
    21:00 +20°C° 0 mm 6 mps 733 mmHg 54%
    22:00 +18°C° 0 mm 8 mps 733 mmHg 52%
    23:00 +17°C° 0 mm 8 mps 733 mmHg 53%

    30 March, Thursday

    Time Temperature Precipitation Wind Pressure Humidity
    00:00 +16°C° 0 mm 8 mps 733 mmHg 54%
    01:00 +16°C° 0 mm 8 mps 732 mmHg 55%
    02:00 +15°C° 0 mm 7 mps 732 mmHg 57%
    03:00 +15°C° 0 mm 7 mps 732 mmHg 58%
    04:00 +14°C° 0 mm 6 mps 732 mmHg 60%
    05:00 +15°C° 0 mm 6 mps 733 mmHg 60%
    06:00 +15°C° 0 mm 6 mps 733 mmHg 60%
    07:00 +15°C° 0 mm 5 mps 733 mmHg 60%
    08:00 +17°C° 0 mm 5 mps 734 mmHg 55%
    09:00 +19°C° 0 mm 5 mps 734 mmHg 50%
    10:00 +21°C° 0 mm 6 mps 734 mmHg 45%
    11:00 +22°C° 0 mm 5 mps 734 mmHg 40%
    12:00 +23°C° 0 mm 4 mps 734 mmHg 36%
    13:00 +25°C° 0 mm 3 mps 733 mmHg 31%
    14:00 +25°C° 0 mm 3 mps 733 mmHg 31%
    15:00 +25°C° 0 mm 2 mps 733 mmHg 31%
    16:00 +25°C° 0 mm 1 mps 733 mmHg 30%
    17:00 +24°C° 0 mm 2 mps 733 mmHg 36%
    18:00 +21°C° 0 mm 2 mps 734 mmHg 41%
    19:00 +20°C° 0 mm 2 mps 734 mmHg 46%
    20:00 +20°C° 0 mm 2 mps 735 mmHg 49%
    21:00 +19°C° 0 mm 3 mps 735 mmHg 52%
    22:00 +19°C° 0 mm 3 mps 735 mmHg 55%
    23:00 +18°C° 0 mm 4 mps 735 mmHg 59%

    31 March, Friday

    Time Temperature Precipitation Wind Pressure Humidity
    00:00 +17°C° 0 mm 5 mps 735 mmHg 63%
    01:00 +16°C° 0 mm 5 mps 735 mmHg 67%
    02:00 +16°C° 0 mm 6 mps 735 mmHg 73%
    03:00 +16°C° 0 mm 7 mps 735 mmHg 78%
    04:00 +15°C° 0 mm 8 mps 735 mmHg 83%
    05:00 +15°C° 0 mm 9 mps 736 mmHg 84%
    06:00 +16°C° 0 mm 10 mps 736 mmHg 85%
    07:00 +16°C° 0 mm 10 mps 737 mmHg 85%
    08:00 +14°C° 0.5 mm 10 mps 737 mmHg 85%
    09:00 +14°C° 0.5 mm 10 mps 737 mmHg 85%
    10:00 +14°C° 0.5 mm 10 mps 737 mmHg 84%
    11:00 +14°C° 0.5 mm 10 mps 737 mmHg 84%
    12:00 +15°C° 0.5 mm 9 mps 737 mmHg 84%
    13:00 +15°C° 0.5 mm 9 mps 737 mmHg 84%
    14:00 +15°C° 0.6 mm 9 mps 737 mmHg 85%
    15:00 +15°C° 0.6 mm 9 mps 737 mmHg 86%
    16:00 +15°C° 0.6 mm 8 mps 737 mmHg 86%
    17:00 +15°C° 0.3 mm 8 mps 737 mmHg 87%
    18:00 +15°C° 0.3 mm 8 mps 738 mmHg 87%
    19:00 +15°C° 0.3 mm 8 mps 738 mmHg 88%
    20:00 +15°C° 0.2 mm 8 mps 738 mmHg 88%
    21:00 +15°C° 0.2 mm 8 mps 738 mmHg 89%
    22:00 +15°C° 0.2 mm 8 mps 738 mmHg 89%
    23:00 +15°C° 0.2 mm 8 mps 738 mmHg 90%

    1 April, Saturday

    Time Temperature Precipitation Wind Pressure Humidity
    00:00 +15°C° 0.2 mm 8 mps 737 mmHg 90%
    01:00 +15°C° 0.2 mm 8 mps 737 mmHg 91%
    02:00 +15°C° 0.1 mm 7 mps 737 mmHg 91%
    03:00 +15°C° 0.1 mm 7 mps 737 mmHg 92%
    04:00 +15°C° 0.1 mm 7 mps 736 mmHg 92%
    05:00 +15°C° 0.3 mm 7 mps 736 mmHg 92%
    06:00 +15°C° 0.3 mm 6 mps 737 mmHg 92%
    07:00 +16°C° 0.3 mm 6 mps 737 mmHg 92%
    08:00 +16°C° 0.5 mm 6 mps 737 mmHg 91%
    09:00 +16°C° 0.5 mm 6 mps 736 mmHg 91%
    10:00 +17°C° 0.5 mm 6 mps 736 mmHg 90%
    11:00 +17°C° 0.2 mm 6 mps 736 mmHg 87%
    12:00 +19°C° 0.2 mm 6 mps 735 mmHg 85%
    13:00 +20°C° 0.2 mm 7 mps 735 mmHg 82%
    14:00 +20°C° 0.1 mm 6 mps 735 mmHg 83%
    15:00 +20°C° 0.1 mm 6 mps 734 mmHg 84%
    16:00 +19°C° 0.1 mm 6 mps 734 mmHg 85%
    17:00 +19°C° 0.2 mm 6 mps 734 mmHg 87%
    18:00 +19°C° 0.2 mm 5 mps 734 mmHg 89%
    19:00 +19°C° 0.2 mm 5 mps 734 mmHg 91%
    20:00 +19°C° 0.1 mm 5 mps 734 mmHg 92%
    21:00 +18°C° 0.1 mm 4 mps 734 mmHg 93%
    22:00 +18°C° 0.1 mm 4 mps 734 mmHg 93%
    23:00 +18°C° 0.1 mm 4 mps 733 mmHg 93%
    Show more